MET1146 - Portland to Ontario

Boeing 737-200
711MT
2 hrs 00 mins
730 nm
Scheduled - M

Bid/PiRep Status

Bid was submitted on December 28th, 2016 13:12 UTC.
PiRep # 74542: Approved by Dave Nichols on January 1st, 2017 4:06 UTC

Departure

Departing from
Portland (PDX)
Departure gate
Scheduled Departure
GMT 1930
Local 1230
METAR KPDX 250053Z 14004KT 10SM FEW040 FEW070 11/05 A3012 RMK AO2 SLP199 T01060050
TAF KPDX 242337Z 2500/2524 20012KT P6SM SCT035 SCT060 FM250300 15006KT P6SM SCT050 SCT250 FM250600 11007KT P6SM SCT100 BKN250 FM251800 09010G18KT P6SM -RA SCT025 BKN050 OVC080

Route Map

Planning Resources

LHV J5 EHF ZIGGY4
KPDX POWEL LKV HARTT PYRAM FMG TILTS SONNY TIOGA PINNI EHF KONT
KDPX BTG LKV HARTT PYRAM FMG TILTS SONNY TIOGA PINNI EHF ZIGGY KONT
RIVER6 BTG J189 AVE EHF ZIGGY4
KPDX DCT URBIA V165 LKV J5 EHF STAR KONT
Route:
OFP Layout:
Units:
Detailed Navlog:
ETOPS Planning:
Plan Stepclimbs:
Runway Analysis:
Include NOTAMS:
FIR NOTAMS:
Flight Maps:

Popularity

Hub Current Bids PiReps this month Total PiReps
KLAX 0 0 2
KBOS 0 0 0
KDFW 0 0 0